TimeMDT,TemperatureF,Dew PointF,Humidity,Sea Level PressureIn,VisibilityMPH,Wind Direction,Wind SpeedMPH,Gust SpeedMPH,PrecipitationIn,Events,Conditions,WindDirDegrees,DateUTC
12:53 AM,48.2,44.6,87,29.81,10.0,South,4.6,-,N/A,,Overcast,180,2013-06-04 06:53:00
12:56 AM,48.0,44.1,86,29.83,10.0,South,4.6,-,N/A,,Overcast,170,2013-06-04 06:56:00
1:56 AM,46.9,45.0,93,29.83,7.0,SSW,4.6,-,N/A,,Overcast,210,2013-06-04 07:56:00
2:56 AM,46.9,46.0,97,29.82,10.0,Calm,Calm,-,0.02,Rain,Light Rain,0,2013-06-04 08:56:00
3:56 AM,48.0,45.0,89,29.83,10.0,Calm,Calm,-,0.00,Rain,Light Rain,0,2013-06-04 09:56:00
4:21 AM,48.2,44.6,87,29.82,10.0,Calm,Calm,-,0.00,,Overcast,0,2013-06-04 10:21:00
4:34 AM,48.2,46.4,93,29.82,10.0,Calm,Calm,-,0.00,,Overcast,0,2013-06-04 10:34:00
4:54 AM,48.2,46.4,93,29.82,10.0,Calm,Calm,-,0.00,,Overcast,0,2013-06-04 10:54:00
4:56 AM,48.0,46.0,93,29.83,10.0,Calm,Calm,-,0.00,,Overcast,0,2013-06-04 10:56:00
5:12 AM,48.2,46.4,93,29.83,10.0,NNW,4.6,-,N/A,,Overcast,340,2013-06-04 11:12:00
5:32 AM,46.4,46.4,100,29.84,2.5,NNW,5.8,-,0.01,Rain,Light Rain,340,2013-06-04 11:32:00
5:53 AM,46.4,44.6,93,29.85,3.0,NNW,6.9,-,0.01,,Overcast,340,2013-06-04 11:53:00
5:56 AM,46.9,46.0,97,29.86,2.5,NNW,8.1,-,0.01,,Overcast,330,2013-06-04 11:56:00
6:13 AM,48.2,46.4,93,29.85,5.0,NW,10.4,-,N/A,,Overcast,320,2013-06-04 12:13:00
6:31 AM,48.2,46.4,93,29.86,9.0,NNW,8.1,-,N/A,,Overcast,330,2013-06-04 12:31:00
6:56 AM,48.0,46.0,93,29.88,10.0,WNW,8.1,-,N/A,,Overcast,300,2013-06-04 12:56:00
7:07 AM,48.2,46.4,93,29.87,2.5,NW,10.4,-,0.00,Rain,Light Rain,320,2013-06-04 13:07:00
7:14 AM,48.2,46.4,93,29.88,3.0,NW,10.4,-,0.00,Rain,Light Rain,320,2013-06-04 13:14:00
7:53 AM,48.2,46.4,93,29.89,2.5,NNW,11.5,-,0.02,Rain,Light Rain,340,2013-06-04 13:53:00
7:56 AM,48.0,46.0,93,29.91,4.0,North,11.5,-,0.02,Rain,Light Rain,350,2013-06-04 13:56:00
8:56 AM,48.0,45.0,89,29.94,10.0,NNW,11.5,-,0.00,,Overcast,340,2013-06-04 14:56:00
9:18 AM,46.4,44.6,93,29.93,10.0,NNW,13.8,-,N/A,,Overcast,330,2013-06-04 15:18:00
9:56 AM,46.9,45.0,93,29.96,9.0,NNW,12.7,-,N/A,,Overcast,330,2013-06-04 15:56:00
10:13 AM,46.4,44.6,93,29.95,10.0,NW,19.6,24.2,N/A,,Overcast,320,2013-06-04 16:13:00
10:56 AM,46.9,45.0,93,29.99,2.5,NW,16.1,21.9,0.00,,Overcast,320,2013-06-04 16:56:00
11:16 AM,48.2,46.4,93,29.96,6.0,NW,15.0,23.0,N/A,,Overcast,310,2013-06-04 17:16:00
11:53 AM,48.2,44.6,87,29.97,10.0,NNW,18.4,23.0,N/A,,Overcast,330,2013-06-04 17:53:00
11:56 AM,48.0,45.0,89,30.00,10.0,NW,17.3,-,N/A,,Overcast,320,2013-06-04 17:56:00
12:07 PM,48.2,44.6,87,29.97,7.0,NW,18.4,23.0,N/A,,Overcast,320,2013-06-04 18:07:00
12:47 PM,48.2,46.4,93,29.98,4.0,NNW,18.4,25.3,0.01,Rain,Light Rain,330,2013-06-04 18:47:00
12:56 PM,48.9,46.0,90,30.01,8.0,NNW,19.6,-,0.01,,Overcast,330,2013-06-04 18:56:00
1:07 PM,48.2,44.6,87,29.99,6.0,NNW,17.3,23.0,N/A,,Overcast,330,2013-06-04 19:07:00
1:28 PM,48.2,44.6,87,29.99,2.5,NNW,13.8,24.2,0.00,Rain,Light Rain,330,2013-06-04 19:28:00
1:38 PM,48.2,46.4,93,29.99,8.0,NW,18.4,24.2,0.00,,Overcast,320,2013-06-04 19:38:00
1:49 PM,48.2,46.4,93,30.00,10.0,NW,15.0,24.2,0.00,,Overcast,320,2013-06-04 19:49:00
1:56 PM,50.0,46.0,86,30.02,10.0,NW,17.3,-,0.00,,Overcast,320,2013-06-04 19:56:00
2:37 PM,48.2,46.4,93,30.00,10.0,NNW,19.6,25.3,0.00,Rain,Light Rain,330,2013-06-04 20:37:00
2:56 PM,50.0,46.0,86,30.02,10.0,NNW,19.6,24.2,0.01,Rain,Light Rain,330,2013-06-04 20:56:00
3:10 PM,48.2,46.4,93,30.01,9.0,NNW,15.0,24.2,0.00,Rain,Light Rain,340,2013-06-04 21:10:00
3:56 PM,48.9,46.0,90,30.04,6.0,North,12.7,21.9,0.00,Rain,Light Rain,350,2013-06-04 21:56:00
4:08 PM,48.2,44.6,87,30.03,10.0,NNW,18.4,24.2,0.00,,Overcast,330,2013-06-04 22:08:00
4:24 PM,50.0,44.6,82,30.03,10.0,NNW,17.3,26.5,0.00,,Overcast,330,2013-06-04 22:24:00
4:56 PM,50.0,45.0,83,30.06,10.0,NNW,19.6,26.5,0.00,,Overcast,330,2013-06-04 22:56:00
5:44 PM,48.2,44.6,87,30.05,8.0,North,11.5,19.6,0.00,Rain,Light Rain,350,2013-06-04 23:44:00
5:56 PM,48.0,45.0,89,30.08,10.0,NNW,16.1,23.0,0.00,,Overcast,330,2013-06-04 23:56:00
6:15 PM,48.2,44.6,87,30.05,10.0,NNW,13.8,23.0,N/A,,Overcast,330,2013-06-05 00:15:00
6:56 PM,48.0,44.1,86,30.09,10.0,NNW,16.1,23.0,0.00,Rain,Light Rain,330,2013-06-05 00:56:00
7:24 PM,46.4,44.6,93,30.07,5.0,NNW,16.1,-,0.00,,Overcast,330,2013-06-05 01:24:00
7:56 PM,46.9,45.0,93,30.11,9.0,NNW,17.3,-,0.00,,Overcast,340,2013-06-05 01:56:00
8:56 PM,46.9,45.0,93,30.13,10.0,NNW,13.8,-,N/A,,Overcast,330,2013-06-05 02:56:00
9:31 PM,46.4,44.6,93,30.11,10.0,NNW,13.8,-,N/A,,Overcast,330,2013-06-05 03:31:00
9:56 PM,46.9,44.1,90,30.15,10.0,NNW,13.8,-,N/A,,Overcast,330,2013-06-05 03:56:00
10:23 PM,46.4,44.6,93,30.12,10.0,NNW,15.0,-,N/A,,Overcast,330,2013-06-05 04:23:00
10:30 PM,46.4,44.6,93,30.12,10.0,NNW,12.7,-,N/A,,Overcast,330,2013-06-05 04:30:00
10:56 PM,48.0,44.1,86,30.14,10.0,NNW,12.7,21.9,N/A,,Overcast,340,2013-06-05 04:56:00
11:54 PM,48.2,44.6,87,30.12,10.0,NW,11.5,-,N/A,,Overcast,310,2013-06-05 05:54:00
11:56 PM,48.0,45.0,89,30.14,10.0,NW,11.5,-,N/A,,Overcast,310,2013-06-05 05:56:00